Find Starlink 32453

NORAD ID: 61671 Int'l Des: 2024-193 Owner: SPXS Country: US Constellation: starlink operational
LEOCIRCULAR

实时位置

正在加载3D地球...

关于 Starlink 32453

正在加载描述...

即将过境

Passes for default location (London). Set your location on the main map for personalized predictions.

高度历史

Loading altitude history...

两行轨道根数

1 61671U 24193L 26123.52571794 .00001017 00000-0 46483-4 0 9992
2 61671 53.1608 196.2031 0001314 95.0066 265.1085 15.30187575 84925
Epoch: May 3, 2026 • Age: 15 hours

当前状态

高度 483.1 km
速度 7.62 km/s
星下点 -25.63°S, 117.45°E
发射日期 Oct 26, 2024
运行时间 1.5 years
类型 internet

技术详情

分类 Payload
质量 730.00 kg
干质量 700.00 kg
总质量 730.00 kg
长度 0.30 m
直径 4.10 m
跨度 29.00 m
形状 Box + pan
制造商 SPXS
平台类型 Starlink V2M
阶段状态 In Orbit
所有者/国家 SPXS/US

Most Searched